Погода в Плискове

Украина / Винницкая область     49°22′09″N   29°17′06″E
темп.,
°C
ветер,
м/с
пор.,
м/с
влажн.,
%
обл.,
%
осадки,
мм/ч
давл.,
гПа
погр.,
м
12 апреля, пн
пн1200:00+7вюв22610 0.0 102720
03:00+5в115610 0.0 102610
06:00+5св22595 0.0 102510
09:00+9св3554100 0.0 1024228
12:00+13св3344100 0.0 1023900
15:00+15св224066 0.0 10211259
18:00+14св2245100 0.0 10201144
21:00+8вюв347797 0.0 102289
13 апреля, вт
вт1300:00+7ююв118493 0.0 102110
03:00+6с118095 0.0 102110
06:00+7ссв2276100 0.0 102033
09:00+8ссв1279100 0.0 102082
12:00+9в2281100 0.0 1020161
15:00+9ююв1291100 0.7 1019276
18:00+8вюв2397100 0.9 1018164
21:00+8юв3598100 1.2 1018300
14 апреля, ср
ср1400:00+7юв3696100 0.0 1017352
03:00+7юв4897100 0.1 1016482
06:00+7ююв51195100 0.8 1015552
09:00+7ююв4991100 1.0 1016336
12:00+10ю4777100 0.3 1016713
15:00+12ю4565100 0.4 10151223
18:00+10ююв3577100 0.1 1014433
21:00+8ю3688100 0.3 1015211
15 апреля, чт
чт1500:00+8ююв2587100 0.2 1015239
03:00+6ю2489100 0.3 101592
06:00+7св3492100 1.1 1014143
09:00+7св3595100 2.9 1015239
12:00+8ссв3588100 0.3 1015366
15:00+9ссз338498 0.3 1014408
18:00+10ссз448278 0.1 1014513
21:00+7сз489698 0.1 1014263
16 апреля, пт
пт1600:00+6сз5895100 0.0 1014299
03:00+5сз5995100 0.0 1014307
06:00+5сз61095100 0.1 1014347
09:00+5сз71092100 0.5 1014449
12:00+7сз71085100 0.0 1015603
15:00+8сз71083100 0.0 1015744
18:00+4зсз71296100 2.3 1016493
21:00+4зсз71395100 6.1 1016460